Location: Unspecified
(20.0000°S, 0.0000°E)
Time: 10:41:19
(UTC+00:00)

OTV 5 (USA 277) - Pass Details

Date: 23 May 2019
Orbit: 310 x 325 km, 54.5° (Epoch: 08 May)

Event Time Altitude Azimuth Distance (km) Brightness Sun altitude
Rises 19:04:37 0° 322° (NW) 2,018 ? -22.2°
Reaches altitude 10° 19:06:33 10° 321° (NW) 1,199 ? -22.6°
Enters shadow 19:07:36 21° 318° (NW) 767 ? -22.8°
